This demonstration page uses our WeatherBlox Daily Observations layout. Learn more.

Left ArrowRight Arrow

Hourly Observations for September 4, 2015

Temp ( °F °C ) Dew Point ( °F °C ) Humidity (%) Winds ( mph kmh ) Pressure ( in mb ) Visibility ( mi km ) Precip ( " mm )
12:53 am 00:53 Clear 67 19.4 44 6.7 44 44 WSW 6 9 29.77 1008 10 16 0.00 0.00
1:53 am 01:53 Clear 62 16.7 46 7.8 56 56 NW 5 7 29.77 1008 10 16 0.00 0.00
2:53 am 02:53 Clear 63 17.2 45 7.2 52 52 NW 5 7 29.77 1008 10 16 0.00 0.00
3:53 am 03:53 Cloudy 60 15.6 45 7.2 58 58 Calm 29.76 1008 10 16 0.00 0.00
4:53 am 04:53 Mostly Cloudy 61 16.1 45 7.2 56 56 Calm 29.76 1008 10 16 0.00 0.00
5:53 am 05:53 Partly Cloudy 60 15.6 45 7.2 58 58 Calm 29.77 1008 10 16 0.00 0.00
6:53 am 06:53 Mostly Sunny 58 14.4 45 7.2 62 62 Calm 29.78 1008 10 16 0.00 0.00
7:53 am 07:53 Mostly Cloudy 64 17.8 45 7.2 50 50 Calm 29.80 1009 10 16 0.00 0.00
8:53 am 08:53 Partly Cloudy 69 20.6 42 5.6 38 38 NNW 7 11 29.79 1009 10 16 0.00 0.00
9:53 am 09:53 Sunny 72 22.2 40 4.4 31 31 N 7 11 29.79 1009 10 16 0.00 0.00
10:53 am 10:53 Sunny 74 23.3 40 4.4 29 29 VRB 3 6 29.79 1009 10 16 0.00 0.00
11:53 am 11:53 Sunny 77 25 39 3.9 26 26 undefined N/A 29.79 1009 10 16 0.00 0.00
12:53 pm 12:53 Sunny 79 26.1 38 3.3 23 23 VRB 3 6 29.77 1008 10 16 0.00 0.00
1:53 pm 13:53 Sunny 79 26.1 36 2.2 21 21 S 10 17 29.75 1008 10 16 0.00 0.00
2:53 pm 14:53 Sunny 82 27.8 32 0 16 16 VRB 7 11 29.74 1007 10 16 0.00 0.00
3:53 pm 15:53 Sunny 83 28.3 30 -1.1 15 15 VRB 5 7 29.73 1007 10 16 0.00 0.00
4:53 pm 16:53 Sunny 84 28.9 24 -4.4 11 11 WNW 10 17 29.72 1007 10 16 0.00 0.00
5:53 pm 17:53 Sunny 82 27.8 23 -5 11 11 W 13 20 29.73 1007 10 16 0.00 0.00
6:53 pm 18:53 Sunny 80 26.7 29 -1.7 15 15 W 9 15 29.75 1007 10 16 0.00 0.00
7:53 pm 19:53 Clear 76 24.4 32 0 20 20 W 7 11 29.77 1008 10 16 0.00 0.00
8:53 pm 20:53 Clear 73 22.8 34 1.1 24 24 W 10 17 29.80 1009 10 16 0.00 0.00
9:53 pm 21:53 Clear 71 21.7 35 1.7 27 27 N 14 22 29.84 1011 10 16 0.00 0.00
10:53 pm 22:53 Clear 68 20 36 2.2 31 31 NNE 10 17 29.87 1012 10 16 0.00 0.00
11:53 pm 23:53 Clear 67 19.4 36 2.2 32 32 NNW 10 17 29.88 1012 10 16 0.00 0.00

Powered by AerisWeather